SCP
0 0 0 0 0 0 0 0 0 1 0 0 0 0 0 0 0 0 0 0 0 0 0 0 0 0 0 0 0 0 0 0 0 0 0 0 0 0 0 0 0 0 0
0 0 0 0 0 0 0 0 0 0 0 0 0 0 0 0 0 0 0 0 0 0 0 0 1 0 0 0 0 0 0 0 0 0 0 0 0 0 0 0 0 0 0
0 0 0 0 0 0 0 0 0 0 0 0 0 0 0 0 0 0 0 0 0 0 1 1 1 1 1 0 0 0 0 0 0 0 0 0 0 0 0 0 0 0 0
0 0 0 0 0 0 0 0 0 0 0 0 0 0 0 0 0 0 0 0 0 0 0 1 1 1 1 1 1 1 0 0 0 0 0 0 0 0 0 0 0 0 0
1 0 0 0 0 0 0 0 0 0 0 0 0 0 0 0 0 0 0 0 0 0 0 1 1 1 1 1 1 1 1 1 1 0 0 0 0 0 0 0 0 0 0
1 1 1 0 0 0 0 0 0 0 0 0 0 0 0 0 0 0 0 0 0 0 0 0 1 1 1 1 1 1 1 1 1 1 1 1 1 0 0 0 0 0 0
1 1 1 1 1 0 0 0 0 0 0 0 0 0 0 0 0 0 0 0 0 0 1 1 1 0 1 1 1 1 2 2 1 1 1 1 1 1 0 0 0 0 0
1 1 1 1 1 1 1 1 1 0 0 1 0 0 0 0 0 0 0 0 0 0 1 1 1 1 0 0 1 1 2 2 2 2 1 1 1 1 1 0 0 0 0
1 1 1 1 1 1 1 1 1 0 0 0 0 0 0 0 0 0 0 0 0 0 1 1 1 1 0 0 1 1 1 2 2 2 1 1 1 1 1 1 1 1 0
0 1 1 1 1 1 1 1 1 1 0 0 0 0 0 0 0 0 0 0 0 0 0 1 1 1 1 1 0 1 1 1 1 1 1 1 1 1 1 1 1 1 1
0 0 1 1 1 1 1 1 1 0 0 0 0 0 0 0 0 0 0 0 0 0 0 0 0 1 1 1 1 1 1 1 1 1 1 1 1 1 1 1 1 1 1
0 0 1 1 1 1 1 0 0 0 0 0 0 0 0 0 0 0 0 0 0 0 0 0 0 0 1 1 1 1 1 1 1 1 1 1 1 1 1 1 1 1 1
0 0 1 1 1 1 1 1 0 0 1 1 1 1 1 1 1 1 1 1 0 0 0 0 0 0 0 1 1 1 1 1 0 0 1 1 1 1 1 1 1 1 1
1 0 1 1 1 1 1 1 1 1 1 1 1 1 1 1 1 1 1 1 1 0 0 0 0 0 0 0 1 1 1 1 0 0 0 0 1 1 1 1 1 1 1
1 1 1 1 1 1 1 1 1 1 1 1 1 1 1 1 2 2 2 2 1 1 0 0 0 0 0 0 0 0 1 1 0 0 0 0 0 0 0 0 0 0 0
1 1 1 1 1 1 1 1 1 1 1 1 1 1 1 1 1 1 1 1 1 1 0 0 0 0 0 0 0 0 1 1 0 0 0 0 0 0 0 0 0 0 0
1 1 1 1 2 1 1 1 1 1 1 1 1 1 1 1 1 1 1 1 1 1 0 0 0 0 0 0 0 0 1 1 1 0 0 0 0 0 0 0 0 0 0
1 1 1 1 1 1 1 1 1 1 1 0 0 0 0 0 0 0 0 0 0 0 0 0 0 0 0 0 0 0 0 1 1 0 0 0 0 0 0 0 0 0 0
1 1 1 1 1 1 1 1 1 1 0 0 0 0 0 0 0 0 0 0 0 0 0 0 0 0 0 0 0 0 0 0 0 0 0 0 0 0 0 0 0 0 0
1 1 1 1 1 1 1 1 1 0 0 0 0 0 0 0 0 0 0 0 0 0 0 0 0 0 0 0 0 0 0 0 0 0 0 0 0 0 0 0 0 0 0
1 1 1 1 1 1 1 1 1 0 0 0 0 0 0 0 0 0 0 0 0 0 0 0 0 0 0 0 0 0 0 0 0 0 0 0 0 0 0 0 0 0 0
1 1 1 1 1 1 1 1 0 0 0 0 0 0 0 0 0 0 0 0 0 0 0 0 0 0 0 0 0 0 0 0 0 0 0 0 0 0 0 0 0 0 0
1 1 2 1 1 1 1 0 0 0 0 0 0 0 0 0 0 0 0 0 0 0 0 0 0 0 0 0 0 0 0 0 0 0 0 0 0 0 0 0 0 0 0
1 1 1 1 1 1 0 0 0 0 0 0 0 0 0 0 0 0 0 0 0 0 0 0 0 0 0 0 0 0 0 0 0 0 0 0 0 0 0 0 0 0 0
0 1 1 1 1 0 0 0 0 0 0 0 0 0 0 0 0 0 0 0 0 0 0 0 0 0 0 0 0 0 0 0 0 0 0 0 0 0 0 0 0 0 0
0 0 0 0 0 0 0 0 0 0 0 0 0 0 0 0 0 0 0 0 0 0 0 0 0 0 0 0 0 0 0 0 0 0 0 0 0 0 0 0 0 0 0
Wind_Speed
3 3 2 2 2 2 2 2 2 2 2 2 2 4 5 5 5 4 4 12 12 11 12 12 11 11 10 10 10 9 10 10 10 9 9 9 9 9 9 8 8 8 7
3 3 3 2 2 2 2 3 3 2 1 1 2 4 5 6 5 5 4 7 12 12 12 12 12 12 11 11 11 10 10 10 10 10 9 9 9 9 9 9 9 8 8
4 3 3 3 3 3 3 2 2 1 1 1 1 3 4 5 5 6 5 4 5 11 12 12 12 13 13 12 12 11 11 11 10 10 10 10 9 9 9 9 9 9 8
4 3 3 3 2 2 2 2 1 1 0 0 1 1 2 3 5 6 5 5 4 5 9 14 13 13 14 13 13 13 12 12 11 11 11 11 10 10 10 10 10 9 9
4 4 3 3 2 2 2 2 2 2 1 1 1 1 2 3 4 6 6 7 6 6 5 10 14 14 15 14 14 14 14 13 13 12 12 12 12 11 10 10 10 10 9
4 4 3 3 3 2 2 2 2 1 2 2 1 1 2 2 3 4 6 6 6 7 7 7 6 9 15 14 14 14 15 15 15 14 14 14 13 12 11 11 11 11 11
4 4 3 3 3 3 3 3 2 2 1 1 1 1 2 2 3 3 4 4 6 7 7 7 5 4 5 13 14 14 15 15 16 15 15 15 14 13 13 13 12 12 12
4 4 4 3 3 3 3 3 2 2 1 2 3 1 1 3 3 3 2 4 5 4 6 8 6 6 6 4 8 14 15 15 16 16 16 15 15 14 14 14 13 13 13
4 4 5 4 4 4 3 4 3 4 3 2 2 4 3 3 3 2 3 3 3 3 4 5 7 7 7 5 5 10 14 14 15 16 16 15 14 14 14 14 14 14 14
3 4 4 4 4 3 4 4 4 3 3 2 2 2 3 3 2 2 2 2 3 4 5 5 6 6 6 5 6 9 12 13 13 15 14 14 14 14 14 15 15 15 14
2 3 3 4 4 4 4 4 3 4 3 4 3 2 2 1 2 2 3 3 2 2 3 4 4 4 5 5 5 7 11 12 12 12 12 12 13 14 14 15 15 15 15
1 2 2 2 3 3 4 4 3 4 4 4 3 3 3 2 2 2 3 3 3 2 1 2 3 4 4 5 7 8 9 10 10 11 11 11 11 11 12 13 13 13 13
1 2 2 1 1 2 3 3 3 3 4 4 3 3 3 3 2 2 3 3 2 2 1 1 3 3 3 3 4 7 8 8 8 9 9 9 9 9 9 10 11 11 11
2 1 1 1 1 1 2 2 2 2 2 3 3 3 2 2 2 3 3 3 2 2 1 2 1 2 2 2 3 5 4 6 7 7 7 7 7 7 7 7 8 8 8
1 1 1 1 0 0 0 1 1 1 1 1 2 2 2 2 2 2 2 3 3 3 3 2 1 1 1 1 1 2 2 3 5 5 5 5 5 4 4 4 4 4 4
2 2 2 2 2 1 1 1 0 0 0 1 1 1 1 1 1 1 1 1 2 3 3 2 1 1 0 1 2 2 2 4 4 4 4 3 3 3 2 2 2 3 3
3 3 2 2 3 2 2 2 2 2 2 1 1 1 1 1 1 1 1 1 1 2 3 2 0 0 1 1 2 2 2 2 2 4 3 3 3 3 2 2 2 2 2
4 3 3 4 4 3 3 3 2 3 2 2 1 1 1 1 1 1 1 1 1 1 2 2 0 0 1 1 2 2 2 3 2 5 6 6 5 5 4 4 3 3 3
5 5 5 5 4 4 4 3 3 3 3 2 2 2 2 2 2 1 1 1 0 0 1 2 0 1 1 1 2 2 2 2 2 4 6 6 6 6 5 5 5 4 4
5 5 5 5 5 4 4 4 4 5 5 5 4 4 4 4 3 2 2 1 1 1 2 2 1 1 1 1 2 2 2 2 2 2 4 4 6 6 6 6 6 5 4
6 5 5 6 5 5 5 5 5 5 5 5 5 5 5 7 8 5 3 2 2 2 2 2 2 1 1 1 1 1 1 1 2 2 2 2 3 3 3 4 4 4 3
6 6 6 6 6 5 7 8 6 5 5 5 5 5 5 7 9 10 10 9 7 4 3 2 1 1 0 0 1 1 2 1 1 1 2 2 2 2 2 1 2 3 3
6 7 6 6 6 7 9 9 9 6 5 5 5 4 5 6 7 5 8 12 11 11 7 3 2 1 0 1 1 2 2 2 1 1 2 2 2 2 1 2 2 2 3
5 6 6 6 6 7 9 9 9 7 6 6 6 5 5 5 6 5 6 7 7 8 7 5 4 2 2 1 2 2 3 3 3 2 2 2 1 1 1 2 2 2 2
6 5 5 5 6 6 9 9 8 5 6 7 6 6 6 5 8 8 7 7 7 6 9 11 10 9 9 9 6 4 3 4 2 2 2 2 1 1 1 2 2 3 3
6 5 6 5 6 5 7 8 7 4 5 4 5 6 9 8 8 8 6 6 6 4 5 7 8 9 8 8 9 5 3 3 2 1 1 2 1 1 1 2 1 1 2
Wind_Direction
170 173 181 188 202 199 196 207 228 244 241 226 173 154 156 157 157 160 168 173 173 173 173 173 174 174 177 176 176 178 179 178 176 174 175 174 172 171 168 168 168 166 162
165 170 179 187 200 200 196 196 203 205 221 195 171 167 161 161 166 166 171 180 184 184 185 184 185 185 187 188 188 189 188 187 185 186 187 186 185 184 182 181 180 179 177
165 167 169 188 201 196 184 180 197 165 215 202 167 167 164 164 168 176 178 180 189 196 196 196 196 196 197 196 196 196 195 194 193 195 195 195 195 195 194 191 191 189 187
165 159 171 199 200 177 166 170 175 151 191 179 190 186 172 166 179 183 184 187 191 200 206 206 205 204 206 204 203 203 202 202 201 201 201 202 203 202 202 203 201 198 197
170 167 180 200 189 171 174 191 170 164 182 209 223 205 201 190 189 192 194 197 199 203 204 213 211 210 213 213 212 210 208 208 206 207 208 210 210 208 207 208 208 207 207
176 174 186 199 179 168 177 180 168 174 189 200 231 239 243 226 205 201 202 200 206 210 207 210 211 216 217 219 218 216 216 213 211 212 213 213 214 212 211 211 212 213 214
180 181 192 188 181 179 187 182 169 174 203 164 87 342 322 282 232 216 207 199 208 212 204 205 205 208 220 224 224 223 223 221 217 216 217 216 216 214 213 214 215 216 218
195 196 194 192 188 180 186 190 172 171 214 163 143 122 326 324 298 242 218 209 211 206 204 202 199 206 214 213 223 225 225 224 223 223 222 221 219 216 215 217 218 218 219
204 200 195 193 196 188 195 202 190 181 203 218 167 156 170 229 280 295 240 218 211 205 207 201 201 210 211 208 218 224 224 224 225 227 227 224 221 219 216 218 219 219 221
213 208 201 195 199 197 200 210 195 187 180 205 221 206 192 178 185 278 295 252 223 214 213 212 206 208 208 208 214 213 219 221 224 227 227 224 222 220 219 220 225 226 225
236 222 215 203 205 205 207 212 202 195 189 196 203 204 214 215 192 192 260 282 278 238 210 206 203 203 203 206 212 218 222 222 221 224 226 227 227 224 223 225 229 229 227
267 245 229 210 212 210 213 216 210 206 206 207 208 199 192 194 206 198 226 248 259 267 225 202 201 208 208 206 215 213 215 218 220 221 222 227 228 228 225 227 230 231 230
259 267 252 227 224 219 218 212 211 218 209 212 215 215 209 212 201 199 211 234 248 265 263 237 222 214 211 207 216 213 209 208 215 217 219 222 223 225 226 227 228 229 229
226 241 223 191 207 201 221 212 215 226 213 220 229 216 214 226 212 208 205 203 240 271 265 253 251 232 221 205 209 207 206 198 205 207 213 218 220 221 223 226 226 226 226
160 104 127 131 109 99 187 188 216 231 203 226 237 228 228 241 235 230 219 198 196 232 260 255 263 307 241 174 185 176 184 167 182 195 200 205 209 213 212 211 212 208 202
66 69 79 81 72 48 25 61 14 10 115 270 246 248 271 276 278 270 249 231 199 199 231 240 224 244 349 116 106 126 136 128 138 160 173 177 187 189 187 176 168 172 177
73 70 71 75 66 53 43 51 44 48 59 21 11 20 315 315 308 311 284 259 233 190 213 250 229 311 84 81 82 90 90 91 101 112 127 139 148 152 142 138 136 130 137
69 67 62 65 64 58 52 56 49 42 48 45 18 355 311 330 352 335 324 285 248 199 183 207 290 43 70 107 107 101 95 94 86 88 95 97 102 101 97 104 112 117 117
67 62 62 62 58 53 50 49 58 51 51 42 29 23 4 30 18 351 6 4 319 49 142 153 182 51 56 82 78 74 69 66 83 91 87 87 91 98 101 101 102 104 104
72 64 62 61 59 55 51 51 58 62 57 47 38 37 33 34 21 7 29 34 66 73 80 101 98 65 58 63 91 87 56 33 50 65 71 77 83 88 90 95 99 101 100
72 67 65 59 53 52 49 53 57 67 60 50 39 38 47 51 48 48 53 46 63 75 77 83 78 57 36 56 101 131 124 89 47 49 68 61 67 60 59 70 88 102 112
70 69 64 62 55 50 51 58 66 67 63 57 47 38 44 45 47 52 57 58 65 79 88 88 85 91 55 246 174 133 132 125 89 29 84 61 63 57 37 43 71 97 109
75 72 67 63 59 49 53 59 65 69 64 56 50 43 46 45 43 45 54 55 52 55 68 103 95 84 172 240 152 120 115 115 120 163 104 72 40 48 30 50 71 90 101
80 77 71 63 60 52 55 60 67 68 63 52 49 50 52 37 41 54 60 55 46 36 41 53 67 46 44 62 117 122 119 93 64 42 63 86 30 29 26 25 44 73 86
85 78 72 66 64 49 50 60 69 69 63 50 44 46 52 50 45 59 67 64 54 38 44 55 56 52 53 59 76 89 83 91 69 7 17 92 81 31 14 4 23 55 69
95 85 68 58 61 51 48 63 74 77 70 57 43 38 44 51 51 60 71 73 66 41 39 41 40 35 37 44 51 65 87 94 86 28 343 78 78 68 29 344 359 21 41